TimeCDT,TemperatureF,Dew PointF,Humidity,Sea Level PressureIn,VisibilityMPH,Wind Direction,Wind SpeedMPH,Gust SpeedMPH,PrecipitationIn,Events,Conditions,WindDirDegrees,DateUTC
12:12 AM,55.4,39.2,54,29.85,10.0,West,8.1,-,N/A,,Clear,280,2013-05-16 05:12:00
12:32 AM,53.6,39.2,58,29.85,10.0,WNW,5.8,-,N/A,,Clear,290,2013-05-16 05:32:00
12:53 AM,51.8,39.2,62,29.86,10.0,West,4.6,-,N/A,,Clear,270,2013-05-16 05:53:00
1:12 AM,51.8,39.2,62,29.86,10.0,West,3.5,-,N/A,,Clear,260,2013-05-16 06:12:00
1:32 AM,53.6,39.2,58,29.86,10.0,Calm,Calm,-,N/A,,Clear,0,2013-05-16 06:32:00
1:53 AM,50.0,39.2,66,29.87,10.0,Calm,Calm,-,N/A,,Clear,0,2013-05-16 06:53:00
2:12 AM,50.0,39.2,66,29.87,10.0,Calm,Calm,-,N/A,,Clear,0,2013-05-16 07:12:00
2:32 AM,48.2,39.2,71,29.87,10.0,Calm,Calm,-,N/A,,Clear,0,2013-05-16 07:32:00
2:53 AM,46.4,37.4,71,29.87,10.0,Calm,Calm,-,N/A,,Clear,0,2013-05-16 07:53:00
3:12 AM,46.4,39.2,76,29.87,10.0,Calm,Calm,-,N/A,,Clear,0,2013-05-16 08:12:00
3:33 AM,44.6,39.2,81,29.87,10.0,Calm,Calm,-,N/A,,Clear,0,2013-05-16 08:33:00
3:53 AM,44.6,39.2,81,29.88,10.0,NE,5.8,-,N/A,,Clear,40,2013-05-16 08:53:00
4:12 AM,44.6,39.2,81,29.88,10.0,Calm,Calm,-,N/A,,Clear,0,2013-05-16 09:12:00
4:33 AM,46.4,39.2,76,29.88,10.0,Calm,Calm,-,N/A,,Clear,0,2013-05-16 09:33:00
4:53 AM,42.8,37.4,81,29.89,10.0,Calm,Calm,-,N/A,,Clear,0,2013-05-16 09:53:00
5:12 AM,42.8,37.4,81,29.89,10.0,Calm,Calm,-,N/A,,Clear,0,2013-05-16 10:12:00
5:33 AM,42.8,37.4,81,29.89,10.0,Calm,Calm,-,N/A,,Clear,0,2013-05-16 10:33:00
5:52 AM,39.2,37.4,93,29.89,10.0,North,3.5,-,N/A,,Clear,10,2013-05-16 10:52:00
6:12 AM,41.0,37.4,87,29.89,10.0,Calm,Calm,-,N/A,,Clear,0,2013-05-16 11:12:00
6:33 AM,42.8,37.4,81,29.89,10.0,Calm,Calm,-,N/A,,Clear,0,2013-05-16 11:33:00
6:52 AM,46.4,42.8,87,29.90,10.0,Calm,Calm,-,N/A,,Clear,0,2013-05-16 11:52:00
7:12 AM,50.0,44.6,82,29.91,10.0,Calm,Calm,-,N/A,,Clear,0,2013-05-16 12:12:00
7:33 AM,55.4,44.6,67,29.91,10.0,ESE,3.5,-,N/A,,Clear,110,2013-05-16 12:33:00
7:52 AM,57.2,42.8,59,29.91,10.0,East,3.5,-,N/A,,Clear,100,2013-05-16 12:52:00
8:13 AM,60.8,44.6,55,29.91,10.0,ESE,4.6,-,N/A,,Clear,110,2013-05-16 13:13:00
8:33 AM,64.4,42.8,45,29.91,10.0,ESE,9.2,-,N/A,,Clear,120,2013-05-16 13:33:00
8:52 AM,69.8,41.0,35,29.91,10.0,ESE,11.5,17.3,N/A,,Clear,120,2013-05-16 13:52:00
9:13 AM,71.6,41.0,33,29.91,10.0,ESE,11.5,-,N/A,,Clear,120,2013-05-16 14:13:00
9:33 AM,73.4,39.2,29,29.91,10.0,SE,12.7,17.3,N/A,,Clear,130,2013-05-16 14:33:00
9:52 AM,75.2,41.0,29,29.90,10.0,SE,10.4,-,N/A,,Clear,140,2013-05-16 14:52:00
10:13 AM,77.0,39.2,26,29.90,10.0,SE,10.4,-,N/A,,Clear,130,2013-05-16 15:13:00
10:33 AM,78.8,39.2,24,29.89,10.0,ESE,12.7,-,N/A,,Clear,120,2013-05-16 15:33:00
10:52 AM,78.8,39.2,24,29.89,10.0,SE,13.8,18.4,N/A,,Clear,140,2013-05-16 15:52:00
11:13 AM,78.8,39.2,24,29.89,10.0,SE,11.5,-,N/A,,Clear,140,2013-05-16 16:13:00
11:32 AM,78.8,39.2,24,29.88,10.0,SE,9.2,16.1,N/A,,Clear,130,2013-05-16 16:32:00
11:52 AM,78.8,37.4,23,29.88,10.0,SE,4.6,9.2,N/A,,Clear,140,2013-05-16 16:52:00
12:13 PM,78.8,39.2,24,29.88,10.0,SSE,6.9,-,N/A,,Clear,160,2013-05-16 17:13:00
12:32 PM,80.6,39.2,23,29.88,10.0,SE,12.7,19.6,N/A,,Clear,130,2013-05-16 17:32:00
12:52 PM,80.6,39.2,23,29.87,10.0,SE,9.2,19.6,N/A,,Clear,140,2013-05-16 17:52:00
1:32 PM,80.6,37.4,21,29.87,10.0,SSE,8.1,-,N/A,,Clear,150,2013-05-16 18:32:00
1:53 PM,80.6,37.4,21,29.86,10.0,SSE,10.4,-,N/A,,Clear,150,2013-05-16 18:53:00
2:12 PM,80.6,35.6,20,29.85,10.0,SE,9.2,-,N/A,,Scattered Clouds,130,2013-05-16 19:12:00
2:32 PM,82.4,37.4,20,29.85,10.0,ESE,8.1,-,N/A,,Scattered Clouds,120,2013-05-16 19:32:00
2:53 PM,80.6,37.4,21,29.85,10.0,ESE,4.6,16.1,N/A,,Clear,110,2013-05-16 19:53:00
3:12 PM,80.6,35.6,20,29.85,10.0,SE,5.8,-,N/A,,Scattered Clouds,130,2013-05-16 20:12:00
3:33 PM,82.4,37.4,20,29.85,10.0,SSE,8.1,18.4,N/A,,Scattered Clouds,150,2013-05-16 20:33:00
3:53 PM,80.6,37.4,21,29.84,10.0,SE,10.4,-,N/A,,Scattered Clouds,130,2013-05-16 20:53:00
4:12 PM,80.6,37.4,21,29.84,10.0,SE,8.1,-,N/A,,Scattered Clouds,140,2013-05-16 21:12:00
4:33 PM,82.4,37.4,20,29.83,10.0,ESE,9.2,-,N/A,,Scattered Clouds,120,2013-05-16 21:33:00
4:52 PM,82.4,37.4,20,29.82,10.0,SE,11.5,-,N/A,,Clear,130,2013-05-16 21:52:00
5:12 PM,80.6,37.4,21,29.82,10.0,ESE,12.7,18.4,N/A,,Scattered Clouds,120,2013-05-16 22:12:00
5:33 PM,80.6,37.4,21,29.82,10.0,ESE,12.7,17.3,N/A,,Mostly Cloudy,120,2013-05-16 22:33:00
5:52 PM,78.8,39.2,24,29.82,10.0,ESE,11.5,18.4,N/A,,Mostly Cloudy,120,2013-05-16 22:52:00
6:12 PM,78.8,39.2,24,29.81,10.0,ESE,10.4,-,N/A,,Mostly Cloudy,110,2013-05-16 23:12:00
6:33 PM,78.8,39.2,24,29.81,10.0,ESE,12.7,19.6,N/A,,Scattered Clouds,120,2013-05-16 23:33:00
6:53 PM,78.8,39.2,24,29.80,10.0,ESE,11.5,16.1,N/A,,Mostly Cloudy,120,2013-05-16 23:53:00
7:12 PM,77.0,39.2,26,29.81,10.0,SE,12.7,17.3,N/A,,Mostly Cloudy,130,2013-05-17 00:12:00
7:33 PM,77.0,39.2,26,29.81,10.0,ESE,12.7,17.3,N/A,,Overcast,120,2013-05-17 00:33:00
7:52 PM,75.2,39.2,27,29.81,10.0,ESE,9.2,-,N/A,,Overcast,120,2013-05-17 00:52:00
8:12 PM,75.2,39.2,27,29.82,10.0,SE,10.4,-,N/A,,Overcast,130,2013-05-17 01:12:00
8:33 PM,75.2,39.2,27,29.83,10.0,SE,10.4,-,N/A,,Overcast,140,2013-05-17 01:33:00
8:52 PM,75.2,39.2,27,29.84,10.0,SE,9.2,-,N/A,,Overcast,140,2013-05-17 01:52:00
9:12 PM,73.4,39.2,29,29.84,10.0,SE,10.4,17.3,N/A,,Overcast,140,2013-05-17 02:12:00
9:33 PM,73.4,41.0,31,29.85,10.0,South,8.1,-,N/A,,Overcast,180,2013-05-17 02:33:00
9:52 PM,71.6,41.0,33,29.86,10.0,SSE,5.8,-,N/A,,Overcast,160,2013-05-17 02:52:00
10:13 PM,73.4,42.8,33,29.87,10.0,South,4.6,-,N/A,,Overcast,190,2013-05-17 03:13:00
10:33 PM,71.6,39.2,31,29.87,10.0,ESE,8.1,-,N/A,,Overcast,120,2013-05-17 03:33:00
10:52 PM,71.6,35.6,27,29.88,10.0,SE,10.4,-,N/A,,Overcast,130,2013-05-17 03:52:00
11:13 PM,69.8,35.6,28,29.88,10.0,ESE,6.9,-,N/A,,Overcast,120,2013-05-17 04:13:00
11:33 PM,69.8,35.6,28,29.88,10.0,ESE,8.1,-,N/A,,Overcast,120,2013-05-17 04:33:00
11:52 PM,69.8,35.6,28,29.88,10.0,SE,5.8,-,N/A,,Overcast,130,2013-05-17 04:52:00